Time,TemperatureF,DewpointF,PressureIn,WindDirection,WindDirectionDegrees,WindSpeedMPH,WindSpeedGustMPH,Humidity,HourlyPrecipIn,Conditions,Clouds,dailyrainin,SoftwareType,DateUTC
2013-06-15 00:00:00,59.0,57.8,30.07,WSW,248,0.0,0.0,96,0.00,,,0.00,perl,2013-06-15 04:00:00,
2013-06-15 00:01:00,59.0,57.8,30.07,WSW,248,0.0,0.0,96,0.00,,,0.00,perl,2013-06-15 04:01:00,
2013-06-15 00:02:00,59.0,58.1,30.07,WSW,248,0.0,0.0,97,0.00,,,0.00,perl,2013-06-15 04:02:00,
2013-06-15 00:03:00,59.0,58.1,30.07,WSW,248,0.0,0.0,97,0.00,,,0.00,perl,2013-06-15 04:03:00,
2013-06-15 00:08:00,59.0,58.1,30.07,WSW,248,0.0,0.0,97,0.00,,,0.00,perl,2013-06-15 04:08:00,
2013-06-15 00:10:00,58.9,58.0,30.07,WSW,248,0.0,0.0,97,0.00,,,0.00,perl,2013-06-15 04:10:00,
2013-06-15 00:15:00,58.7,57.8,30.07,WSW,248,0.0,0.0,97,0.00,,,0.00,perl,2013-06-15 04:15:00,
2013-06-15 00:20:00,58.6,57.7,30.07,WSW,248,0.0,0.0,97,0.00,,,0.00,perl,2013-06-15 04:20:00,
2013-06-15 00:25:00,58.5,57.6,30.07,WSW,248,0.0,0.0,97,0.00,,,0.00,perl,2013-06-15 04:25:00,
2013-06-15 00:30:00,58.4,57.5,30.07,WSW,248,0.0,0.0,97,0.00,,,0.00,perl,2013-06-15 04:30:00,
2013-06-15 00:35:00,58.3,57.4,30.07,WSW,248,0.0,0.0,97,0.00,,,0.00,perl,2013-06-15 04:35:00,
2013-06-15 00:40:00,58.2,57.3,30.07,WSW,248,0.0,0.0,97,0.00,,,0.00,perl,2013-06-15 04:40:00,
2013-06-15 00:45:00,58.1,57.2,30.07,WSW,248,0.0,0.0,97,0.00,,,0.00,perl,2013-06-15 04:45:00,
2013-06-15 00:50:00,58.0,57.1,30.07,WSW,248,0.0,0.0,97,0.00,,,0.00,perl,2013-06-15 04:50:00,
2013-06-15 00:55:00,57.9,57.3,30.07,WSW,248,0.0,0.0,98,0.00,,,0.00,perl,2013-06-15 04:55:00,
2013-06-15 01:00:00,57.8,57.2,30.07,WSW,248,0.0,0.0,98,0.00,,,0.00,perl,2013-06-15 05:00:00,
2013-06-15 01:05:00,57.7,57.1,30.07,WSW,248,0.0,0.0,98,0.00,,,0.00,perl,2013-06-15 05:05:00,
2013-06-15 01:10:00,57.5,56.9,30.07,WSW,248,0.0,0.0,98,0.00,,,0.00,perl,2013-06-15 05:10:00,
2013-06-15 01:15:00,57.5,56.9,30.07,WSW,248,0.0,0.0,98,0.00,,,0.00,perl,2013-06-15 05:15:00,
2013-06-15 01:20:00,57.5,56.9,30.07,WSW,248,0.0,0.0,98,0.00,,,0.00,perl,2013-06-15 05:20:00,
2013-06-15 01:25:00,57.4,56.8,30.07,WSW,248,0.0,0.0,98,0.00,,,0.00,perl,2013-06-15 05:25:00,
2013-06-15 01:30:00,57.4,56.8,30.07,WSW,248,0.0,0.0,98,0.00,,,0.00,perl,2013-06-15 05:30:00,
2013-06-15 01:35:00,57.3,56.7,30.07,WSW,248,0.0,0.0,98,0.00,,,0.00,perl,2013-06-15 05:35:00,
2013-06-15 01:40:00,57.2,56.6,30.07,WSW,248,0.0,0.0,98,0.00,,,0.00,perl,2013-06-15 05:40:00,
2013-06-15 01:45:00,57.2,56.6,30.07,WSW,248,0.0,0.0,98,0.00,,,0.00,perl,2013-06-15 05:45:00,
2013-06-15 01:50:00,57.1,56.5,30.07,WSW,248,0.0,0.0,98,0.00,,,0.00,perl,2013-06-15 05:50:00,
2013-06-15 01:55:00,57.0,56.4,30.07,WSW,248,0.0,0.0,98,0.00,,,0.00,perl,2013-06-15 05:55:00,
2013-06-15 02:00:00,56.9,56.3,30.07,WSW,248,0.0,0.0,98,0.00,,,0.00,perl,2013-06-15 06:00:00,
2013-06-15 02:06:00,56.8,56.2,30.07,WSW,248,0.0,0.0,98,0.00,,,0.00,perl,2013-06-15 06:06:00,
2013-06-15 02:11:00,56.8,56.5,30.07,WSW,248,0.0,0.0,99,0.00,,,0.00,perl,2013-06-15 06:11:00,
2013-06-15 02:16:00,56.7,56.4,30.07,WSW,248,0.0,0.0,99,0.00,,,0.00,perl,2013-06-15 06:16:00,
2013-06-15 02:21:00,56.6,56.0,30.07,WSW,248,0.0,0.0,98,0.00,,,0.00,perl,2013-06-15 06:21:00,
2013-06-15 02:27:00,56.6,56.0,30.07,WSW,248,0.0,0.0,98,0.00,,,0.00,perl,2013-06-15 06:27:00,
2013-06-15 02:32:00,56.5,56.2,30.07,WSW,248,0.0,0.0,99,0.00,,,0.00,perl,2013-06-15 06:32:00,
2013-06-15 02:37:00,56.4,56.1,30.07,WSW,248,0.0,0.0,99,0.00,,,0.00,perl,2013-06-15 06:37:00,
2013-06-15 02:43:00,56.4,56.1,30.07,WSW,248,0.0,0.0,99,0.00,,,0.00,perl,2013-06-15 06:43:00,
2013-06-15 02:48:00,56.3,56.0,30.07,WSW,248,0.0,0.0,99,0.00,,,0.00,perl,2013-06-15 06:48:00,
2013-06-15 02:53:00,56.2,55.9,30.07,WSW,248,0.0,0.0,99,0.00,,,0.00,perl,2013-06-15 06:53:00,
2013-06-15 02:58:00,56.2,55.9,30.07,WSW,248,0.0,0.0,99,0.00,,,0.00,perl,2013-06-15 06:58:00,
2013-06-15 03:03:00,56.1,55.8,30.07,WSW,248,0.0,0.0,99,0.00,,,0.00,perl,2013-06-15 07:03:00,
2013-06-15 03:09:00,56.1,55.8,30.07,WSW,248,0.0,0.0,99,0.00,,,0.00,perl,2013-06-15 07:09:00,
2013-06-15 03:14:00,56.0,55.7,30.07,WSW,248,0.0,0.0,99,0.00,,,0.00,perl,2013-06-15 07:14:00,
2013-06-15 03:19:00,55.9,55.6,30.07,WSW,248,0.0,0.0,99,0.00,,,0.00,perl,2013-06-15 07:19:00,
2013-06-15 03:24:00,55.9,55.6,30.07,WSW,248,0.0,0.0,99,0.00,,,0.00,perl,2013-06-15 07:24:00,
2013-06-15 03:29:00,55.8,55.5,30.06,WSW,248,0.0,0.0,99,0.00,,,0.00,perl,2013-06-15 07:29:00,
2013-06-15 03:34:00,55.7,55.4,30.06,WSW,248,0.0,0.0,99,0.00,,,0.00,perl,2013-06-15 07:34:00,
2013-06-15 03:39:00,55.6,55.3,30.06,WSW,248,0.0,0.0,99,0.00,,,0.00,perl,2013-06-15 07:39:00,
2013-06-15 03:44:00,55.6,55.3,30.06,WSW,248,0.0,0.0,99,0.00,,,0.00,perl,2013-06-15 07:44:00,
2013-06-15 03:49:00,55.5,55.2,30.06,WSW,248,0.0,0.0,99,0.00,,,0.00,perl,2013-06-15 07:49:00,
2013-06-15 03:54:00,55.4,55.1,30.06,WSW,248,0.0,0.0,99,0.00,,,0.00,perl,2013-06-15 07:54:00,
2013-06-15 03:59:00,55.3,55.0,30.06,WSW,248,0.0,0.0,99,0.00,,,0.00,perl,2013-06-15 07:59:00,
2013-06-15 04:04:00,55.3,55.0,30.06,WSW,248,0.0,0.0,99,0.00,,,0.00,perl,2013-06-15 08:04:00,
2013-06-15 04:09:00,55.3,55.0,30.06,WSW,248,0.0,0.0,99,0.00,,,0.00,perl,2013-06-15 08:09:00,
2013-06-15 04:14:00,55.4,55.1,30.06,WSW,248,0.0,0.0,99,0.00,,,0.00,perl,2013-06-15 08:14:00,
2013-06-15 04:19:00,55.3,55.0,30.06,WSW,248,0.0,0.0,99,0.00,,,0.00,perl,2013-06-15 08:19:00,
2013-06-15 04:24:00,55.3,55.0,30.06,WSW,248,0.0,0.0,99,0.00,,,0.00,perl,2013-06-15 08:24:00,
2013-06-15 04:29:00,55.1,54.8,30.07,WSW,248,0.0,0.0,99,0.00,,,0.00,perl,2013-06-15 08:29:00,
2013-06-15 04:34:00,55.0,54.7,30.07,WSW,248,0.0,0.0,99,0.00,,,0.00,perl,2013-06-15 08:34:00,
2013-06-15 04:39:00,55.0,54.7,30.07,WSW,248,0.0,0.0,99,0.00,,,0.00,perl,2013-06-15 08:39:00,
2013-06-15 04:44:00,54.9,54.6,30.07,WSW,248,0.0,0.0,99,0.00,,,0.00,perl,2013-06-15 08:44:00,
2013-06-15 04:49:00,54.8,54.5,30.07,WSW,248,0.0,0.0,99,0.00,,,0.00,perl,2013-06-15 08:49:00,
2013-06-15 04:54:00,54.7,54.4,30.07,WSW,248,0.0,0.0,99,0.00,,,0.00,perl,2013-06-15 08:54:00,
2013-06-15 04:59:00,54.6,54.3,30.09,WSW,248,0.0,0.0,99,0.00,,,0.00,perl,2013-06-15 08:59:00,
2013-06-15 05:04:00,54.5,54.2,30.09,WSW,248,0.0,0.0,99,0.00,,,0.00,perl,2013-06-15 09:04:00,
2013-06-15 05:09:00,54.4,54.1,30.09,WSW,248,0.0,0.0,99,0.00,,,0.00,perl,2013-06-15 09:09:00,
2013-06-15 05:14:00,54.4,54.1,30.09,WSW,248,0.0,0.0,99,0.00,,,0.00,perl,2013-06-15 09:14:00,
2013-06-15 05:19:00,54.3,54.0,30.09,WSW,248,0.0,0.0,99,0.00,,,0.00,perl,2013-06-15 09:19:00,
2013-06-15 05:24:00,54.2,53.9,30.09,WSW,248,0.0,0.0,99,0.00,,,0.00,perl,2013-06-15 09:24:00,
2013-06-15 05:29:00,54.1,53.8,30.10,WSW,248,0.0,0.0,99,0.00,,,0.00,perl,2013-06-15 09:29:00,
2013-06-15 05:34:00,54.1,53.8,30.10,WSW,248,0.0,0.0,99,0.00,,,0.00,perl,2013-06-15 09:34:00,
2013-06-15 05:39:00,54.2,54.2,30.10,WSW,248,0.0,0.0,100,0.00,,,0.00,perl,2013-06-15 09:39:00,
2013-06-15 05:44:00,54.3,54.0,30.09,WSW,248,0.0,0.0,99,0.00,,,0.00,perl,2013-06-15 09:44:00,
2013-06-15 05:49:00,54.4,54.1,30.09,WSW,248,0.0,0.0,99,0.00,,,0.00,perl,2013-06-15 09:49:00,
2013-06-15 05:54:00,54.3,54.0,30.09,WSW,248,0.0,0.0,99,0.00,,,0.00,perl,2013-06-15 09:54:00,
2013-06-15 05:59:00,54.4,54.4,30.10,WSW,248,0.0,0.0,100,0.00,,,0.00,perl,2013-06-15 09:59:00,
2013-06-15 06:04:00,54.3,54.3,30.10,WSW,248,0.0,0.0,100,0.00,,,0.00,perl,2013-06-15 10:04:00,
2013-06-15 06:09:00,54.3,54.3,30.10,WSW,248,0.0,0.0,100,0.00,,,0.00,perl,2013-06-15 10:09:00,
2013-06-15 06:14:00,54.3,54.3,30.10,WSW,248,0.0,0.0,100,0.00,,,0.00,perl,2013-06-15 10:14:00,
2013-06-15 06:19:00,54.3,54.3,30.10,WSW,248,0.0,0.0,100,0.00,,,0.00,perl,2013-06-15 10:19:00,
2013-06-15 06:24:00,54.2,54.2,30.10,WSW,248,0.0,0.0,100,0.00,,,0.00,perl,2013-06-15 10:24:00,
2013-06-15 06:29:00,54.2,54.2,30.10,WSW,248,0.0,0.0,100,0.00,,,0.00,perl,2013-06-15 10:29:00,
2013-06-15 06:34:00,54.2,54.2,30.10,WSW,248,0.0,0.0,100,0.00,,,0.00,perl,2013-06-15 10:34:00,
2013-06-15 06:39:00,54.2,54.2,30.10,WSW,248,0.0,0.0,100,0.00,,,0.00,perl,2013-06-15 10:39:00,
2013-06-15 06:44:00,54.2,54.2,30.10,WSW,248,0.0,0.0,100,0.00,,,0.00,perl,2013-06-15 10:44:00,
2013-06-15 06:49:00,54.2,54.2,30.10,WSW,248,0.0,0.0,100,0.00,,,0.00,perl,2013-06-15 10:49:00,
2013-06-15 06:54:00,54.3,54.3,30.10,WSW,248,0.0,0.0,100,0.00,,,0.00,perl,2013-06-15 10:54:00,
2013-06-15 06:59:00,54.4,54.4,30.11,WSW,248,0.0,0.0,100,0.00,,,0.00,perl,2013-06-15 10:59:00,
2013-06-15 07:04:00,54.5,54.5,30.11,WSW,248,0.0,0.0,100,0.00,,,0.00,perl,2013-06-15 11:04:00,
2013-06-15 07:09:00,54.7,54.7,30.11,WSW,248,0.0,0.0,100,0.00,,,0.00,perl,2013-06-15 11:09:00,
2013-06-15 07:14:00,55.0,55.0,30.12,WSW,248,0.0,0.0,100,0.00,,,0.00,perl,2013-06-15 11:14:00,
2013-06-15 07:19:00,55.3,55.3,30.12,WSW,248,0.0,0.0,100,0.00,,,0.00,perl,2013-06-15 11:19:00,
2013-06-15 07:24:00,55.5,55.5,30.12,WSW,248,0.0,0.0,100,0.00,,,0.00,perl,2013-06-15 11:24:00,
2013-06-15 07:29:00,55.8,55.8,30.14,WSW,248,0.0,0.0,100,0.00,,,0.00,perl,2013-06-15 11:29:00,
2013-06-15 07:34:00,56.2,56.2,30.14,WSW,248,0.0,0.0,100,0.00,,,0.00,perl,2013-06-15 11:34:00,
2013-06-15 07:39:00,56.5,56.5,30.14,WSW,248,0.0,0.0,100,0.00,,,0.00,perl,2013-06-15 11:39:00,
2013-06-15 07:44:00,57.0,57.0,30.14,WSW,248,0.0,0.0,100,0.00,,,0.00,perl,2013-06-15 11:44:00,
2013-06-15 07:49:00,57.4,57.4,30.14,WSW,248,0.0,0.0,100,0.00,,,0.00,perl,2013-06-15 11:49:00,
2013-06-15 07:54:00,57.8,57.8,30.14,WSW,248,0.0,0.0,100,0.00,,,0.00,perl,2013-06-15 11:54:00,
2013-06-15 08:00:00,58.4,58.4,30.14,WSW,248,0.0,0.0,100,0.00,,,0.00,perl,2013-06-15 12:00:00,
2013-06-15 08:05:00,59.0,59.0,30.14,WSW,248,0.0,0.0,100,0.00,,,0.00,perl,2013-06-15 12:05:00,
2013-06-15 08:11:00,59.3,59.3,30.14,WSW,248,0.0,0.0,100,0.00,,,0.00,perl,2013-06-15 12:11:00,
2013-06-15 08:17:00,60.2,60.2,30.14,WSW,248,0.0,0.0,100,0.00,,,0.00,perl,2013-06-15 12:17:00,
2013-06-15 08:22:00,60.9,60.9,30.14,WSW,248,0.0,0.0,100,0.00,,,0.00,perl,2013-06-15 12:22:00,
2013-06-15 08:27:00,61.1,61.1,30.14,WSW,248,0.0,0.0,100,0.00,,,0.00,perl,2013-06-15 12:27:00,
2013-06-15 08:33:00,61.5,61.5,30.14,WSW,248,0.0,0.0,100,0.00,,,0.00,perl,2013-06-15 12:33:00,
2013-06-15 08:39:00,62.3,62.3,30.14,WSW,248,0.0,0.0,100,0.00,,,0.00,perl,2013-06-15 12:39:00,
2013-06-15 08:44:00,62.7,62.7,30.14,WSW,248,0.0,0.0,100,0.00,,,0.00,perl,2013-06-15 12:44:00,
2013-06-15 08:49:00,63.0,63.0,30.14,WSW,248,0.0,0.0,100,0.00,,,0.00,perl,2013-06-15 12:49:00,
2013-06-15 08:54:00,63.5,63.5,30.14,WSW,248,0.0,0.0,100,0.00,,,0.00,perl,2013-06-15 12:54:00,
2013-06-15 08:59:00,64.2,64.2,30.13,WSW,248,0.0,0.0,100,0.00,,,0.00,perl,2013-06-15 12:59:00,
2013-06-15 09:04:00,65.1,64.8,30.13,WSW,248,0.0,0.0,99,0.00,,,0.00,perl,2013-06-15 13:04:00,
2013-06-15 09:09:00,65.9,64.7,30.13,WSW,248,0.0,0.0,96,0.00,,,0.00,perl,2013-06-15 13:09:00,
2013-06-15 09:14:00,66.9,64.8,30.14,WSW,248,0.0,0.0,93,0.00,,,0.00,perl,2013-06-15 13:14:00,
2013-06-15 09:19:00,67.4,64.0,30.14,WSW,248,0.0,0.0,89,0.00,,,0.00,perl,2013-06-15 13:19:00,
2013-06-15 09:24:00,67.7,64.0,30.14,WSW,248,0.0,0.0,88,0.00,,,0.00,perl,2013-06-15 13:24:00,
2013-06-15 09:29:00,68.0,64.0,30.14,WSW,248,0.0,0.0,87,0.00,,,0.00,perl,2013-06-15 13:29:00,
2013-06-15 09:34:00,68.3,64.0,30.14,WSW,248,0.0,0.0,86,0.00,,,0.00,perl,2013-06-15 13:34:00,
2013-06-15 09:39:00,68.8,64.1,30.14,WSW,248,0.0,0.0,85,0.00,,,0.00,perl,2013-06-15 13:39:00,
2013-06-15 09:44:00,69.3,64.0,30.14,WSW,248,0.0,0.0,83,0.00,,,0.00,perl,2013-06-15 13:44:00,
2013-06-15 09:49:00,69.8,64.8,30.14,WSW,248,0.0,0.0,84,0.00,,,0.00,perl,2013-06-15 13:49:00,
2013-06-15 09:55:00,70.7,65.0,30.14,WSW,248,0.0,0.0,82,0.00,,,0.00,perl,2013-06-15 13:55:00,
2013-06-15 10:00:00,71.4,65.0,30.14,WSW,248,0.0,0.0,80,0.00,,,0.00,perl,2013-06-15 14:00:00,
2013-06-15 10:05:00,72.1,65.3,30.14,WSW,248,0.0,0.0,79,0.00,,,0.00,perl,2013-06-15 14:05:00,
2013-06-15 10:10:00,72.8,65.3,30.14,WSW,248,0.0,0.0,77,0.00,,,0.00,perl,2013-06-15 14:10:00,
2013-06-15 10:15:00,73.2,64.9,30.14,WSW,248,0.0,0.0,75,0.00,,,0.00,perl,2013-06-15 14:15:00,
2013-06-15 10:20:00,73.2,64.9,30.14,WSW,248,0.0,0.0,75,0.00,,,0.00,perl,2013-06-15 14:20:00,
2013-06-15 10:25:00,73.2,64.9,30.14,WSW,248,0.0,0.0,75,0.00,,,0.00,perl,2013-06-15 14:25:00,
2013-06-15 10:30:00,73.3,65.0,30.14,WSW,248,0.0,0.0,75,0.00,,,0.00,perl,2013-06-15 14:30:00,
2013-06-15 10:35:00,73.6,65.7,30.14,WSW,248,0.0,0.0,76,0.00,,,0.00,perl,2013-06-15 14:35:00,
2013-06-15 10:40:00,74.1,65.8,30.14,WSW,248,0.0,0.0,75,0.00,,,0.00,perl,2013-06-15 14:40:00,
2013-06-15 10:45:00,74.7,66.8,30.13,WSW,248,0.0,0.0,76,0.00,,,0.00,perl,2013-06-15 14:45:00,
2013-06-15 10:50:00,75.3,66.6,30.13,WSW,248,0.0,0.0,74,0.00,,,0.00,perl,2013-06-15 14:50:00,
2013-06-15 10:55:00,75.5,64.8,30.13,WSW,248,0.0,0.0,69,0.00,,,0.00,perl,2013-06-15 14:55:00,
2013-06-15 11:00:00,75.2,64.5,30.13,WSW,248,0.0,0.0,69,0.00,,,0.00,perl,2013-06-15 15:00:00,
2013-06-15 11:05:00,75.5,65.2,30.13,WSW,248,0.0,0.0,70,0.00,,,0.00,perl,2013-06-15 15:05:00,
2013-06-15 11:10:00,76.0,65.3,30.13,WSW,248,0.0,0.0,69,0.00,,,0.00,perl,2013-06-15 15:10:00,
2013-06-15 11:15:00,76.2,65.1,30.13,WSW,248,0.0,0.0,68,0.00,,,0.00,perl,2013-06-15 15:15:00,
2013-06-15 11:20:00,76.6,65.0,30.13,SW,233,0.0,0.0,67,0.00,,,0.00,perl,2013-06-15 15:20:00,
2013-06-15 11:25:00,77.8,65.3,30.13,SW,233,0.0,0.0,65,0.00,,,0.00,perl,2013-06-15 15:25:00,
2013-06-15 11:30:00,78.5,64.2,30.13,SW,233,0.0,0.0,61,0.00,,,0.00,perl,2013-06-15 15:30:00,
2013-06-15 11:35:00,78.7,63.9,30.13,SW,227,0.0,0.0,60,0.00,,,0.00,perl,2013-06-15 15:35:00,
2013-06-15 11:40:00,79.4,65.0,30.13,SSW,192,0.0,0.0,61,0.00,,,0.00,perl,2013-06-15 15:40:00,
2013-06-15 11:45:00,80.0,65.6,30.12,SSW,192,0.0,0.0,61,0.00,,,0.00,perl,2013-06-15 15:45:00,
2013-06-15 11:50:00,80.1,63.2,30.12,SSW,192,0.0,0.0,56,0.00,,,0.00,perl,2013-06-15 15:50:00,
2013-06-15 11:55:00,79.9,64.0,30.12,SW,232,1.0,0.0,58,0.00,,,0.00,perl,2013-06-15 15:55:00,
2013-06-15 12:00:00,79.7,63.3,30.12,SW,223,0.0,0.0,57,0.00,,,0.00,perl,2013-06-15 16:00:00,
2013-06-15 12:05:00,80.6,63.1,30.12,NW,325,0.0,0.0,55,0.00,,,0.00,perl,2013-06-15 16:05:00,
2013-06-15 12:10:00,81.2,63.7,30.12,NW,325,0.0,0.0,55,0.00,,,0.00,perl,2013-06-15 16:10:00,
2013-06-15 12:15:00,81.6,62.4,30.12,SSW,198,0.0,0.0,52,0.00,,,0.00,perl,2013-06-15 16:15:00,
2013-06-15 12:20:00,81.9,62.1,30.12,South,179,0.0,0.0,51,0.00,,,0.00,perl,2013-06-15 16:20:00,
2013-06-15 12:25:00,82.6,63.9,30.12,South,179,0.0,0.0,53,0.00,,,0.00,perl,2013-06-15 16:25:00,
2013-06-15 12:30:00,83.3,63.4,30.12,East,98,1.0,0.0,51,0.00,,,0.00,perl,2013-06-15 16:30:00,
2013-06-15 12:35:00,83.5,61.8,30.12,SSW,212,0.0,0.0,48,0.00,,,0.00,perl,2013-06-15 16:35:00,
2013-06-15 12:40:00,83.6,61.9,30.12,ESE,115,1.0,0.0,48,0.00,,,0.00,perl,2013-06-15 16:40:00,
2013-06-15 12:45:00,83.6,64.3,30.12,ESE,120,0.0,0.0,52,0.00,,,0.00,perl,2013-06-15 16:45:00,
2013-06-15 12:51:00,83.1,63.8,30.12,SSW,213,3.0,0.0,52,0.00,,,0.00,perl,2013-06-15 16:51:00,
2013-06-15 12:57:00,82.9,63.1,30.12,SSW,213,0.0,0.0,51,0.00,,,0.00,perl,2013-06-15 16:57:00,
2013-06-15 13:02:00,83.2,62.2,30.12,SSE,153,0.0,0.0,49,0.00,,,0.00,perl,2013-06-15 17:02:00,
2013-06-15 13:07:00,83.1,62.1,30.12,SSE,153,0.0,0.0,49,0.00,,,0.00,perl,2013-06-15 17:07:00,
2013-06-15 13:13:00,82.5,64.4,30.12,SSE,155,0.0,0.0,54,0.00,,,0.00,perl,2013-06-15 17:13:00,
2013-06-15 13:18:00,82.6,64.5,30.11,ESE,114,0.0,0.0,54,0.00,,,0.00,perl,2013-06-15 17:18:00,
2013-06-15 13:23:00,82.9,61.9,30.11,ENE,61,0.0,0.0,49,0.00,,,0.00,perl,2013-06-15 17:23:00,
2013-06-15 13:29:00,83.7,62.0,30.10,ENE,61,0.0,0.0,48,0.00,,,0.00,perl,2013-06-15 17:29:00,
2013-06-15 13:34:00,84.1,63.6,30.10,ENE,61,0.0,0.0,50,0.00,,,0.00,perl,2013-06-15 17:34:00,
2013-06-15 13:39:00,84.3,63.2,30.10,SSE,163,0.0,0.0,49,0.00,,,0.00,perl,2013-06-15 17:39:00,
2013-06-15 13:44:00,84.6,62.9,30.10,South,180,0.0,0.0,48,0.00,,,0.00,perl,2013-06-15 17:44:00,
2013-06-15 13:49:00,84.2,63.1,30.10,West,267,1.0,0.0,49,0.00,,,0.00,perl,2013-06-15 17:49:00,
2013-06-15 13:54:00,84.4,60.8,30.10,West,269,0.0,0.0,45,0.00,,,0.00,perl,2013-06-15 17:54:00,
2013-06-15 13:59:00,84.2,61.2,30.09,West,271,0.0,0.0,46,0.00,,,0.00,perl,2013-06-15 17:59:00,
2013-06-15 14:04:00,84.1,63.0,30.09,West,271,0.0,0.0,49,0.00,,,0.00,perl,2013-06-15 18:04:00,
2013-06-15 14:09:00,84.3,62.6,30.09,West,271,0.0,0.0,48,0.00,,,0.00,perl,2013-06-15 18:09:00,
2013-06-15 14:14:00,83.6,63.1,30.08,West,271,0.0,0.0,50,0.00,,,0.00,perl,2013-06-15 18:14:00,
2013-06-15 14:19:00,82.9,64.2,30.08,West,271,0.0,0.0,53,0.00,,,0.00,perl,2013-06-15 18:19:00,
2013-06-15 14:24:00,83.1,63.2,30.08,West,271,0.0,0.0,51,0.00,,,0.00,perl,2013-06-15 18:24:00,
2013-06-15 14:29:00,83.3,63.4,30.08,West,271,0.0,0.0,51,0.00,,,0.00,perl,2013-06-15 18:29:00,
2013-06-15 14:34:00,83.4,62.4,30.08,West,271,0.0,0.0,49,0.00,,,0.00,perl,2013-06-15 18:34:00,
2013-06-15 14:39:00,83.7,62.0,30.08,West,271,0.0,0.0,48,0.00,,,0.00,perl,2013-06-15 18:39:00,
2013-06-15 14:44:00,83.9,62.8,30.07,West,277,0.0,0.0,49,0.00,,,0.00,perl,2013-06-15 18:44:00,
2013-06-15 14:49:00,84.0,62.3,30.07,WNW,294,0.0,0.0,48,0.00,,,0.00,perl,2013-06-15 18:49:00,
2013-06-15 14:54:00,83.8,62.1,30.07,WNW,302,0.0,0.0,48,0.00,,,0.00,perl,2013-06-15 18:54:00,
2013-06-15 14:59:00,83.9,62.8,30.06,WNW,303,0.0,0.0,49,0.00,,,0.00,perl,2013-06-15 18:59:00,
2013-06-15 15:04:00,83.8,65.0,30.06,WNW,303,0.0,0.0,53,0.00,,,0.00,perl,2013-06-15 19:04:00,
2013-06-15 15:09:00,83.5,63.0,30.06,SSW,192,0.0,0.0,50,0.00,,,0.00,perl,2013-06-15 19:09:00,
2013-06-15 15:14:00,83.6,64.3,30.06,WSW,239,0.0,1.0,52,0.00,,,0.00,perl,2013-06-15 19:14:00,
2013-06-15 15:19:00,83.6,66.5,30.06,SSW,200,2.0,2.0,56,0.00,,,0.00,perl,2013-06-15 19:19:00,
2013-06-15 15:24:00,83.5,64.2,30.06,SW,230,0.0,1.0,52,0.00,,,0.00,perl,2013-06-15 19:24:00,
2013-06-15 15:29:00,83.3,65.7,30.06,SW,230,0.0,0.0,55,0.00,,,0.00,perl,2013-06-15 19:29:00,
2013-06-15 15:34:00,82.9,63.1,30.06,SE,125,1.0,0.0,51,0.00,,,0.00,perl,2013-06-15 19:34:00,
2013-06-15 15:39:00,83.1,64.4,30.06,ESE,123,0.0,0.0,53,0.00,,,0.00,perl,2013-06-15 19:39:00,
2013-06-15 15:44:00,83.2,63.9,30.05,SSE,159,0.0,0.0,52,0.00,,,0.00,perl,2013-06-15 19:44:00,
2013-06-15 15:49:00,83.6,63.7,30.05,WSW,240,1.0,0.0,51,0.00,,,0.00,perl,2013-06-15 19:49:00,
2013-06-15 15:54:00,83.1,63.2,30.05,SW,235,0.0,1.0,51,0.00,,,0.00,perl,2013-06-15 19:54:00,
2013-06-15 15:59:00,81.9,63.8,30.06,SW,236,3.0,3.0,54,0.00,,,0.00,perl,2013-06-15 19:59:00,
2013-06-15 16:04:00,80.7,64.8,30.06,WSW,242,0.0,0.0,58,0.00,,,0.00,perl,2013-06-15 20:04:00,
2013-06-15 16:09:00,80.1,64.7,30.06,WSW,244,0.0,0.0,59,0.00,,,0.00,perl,2013-06-15 20:09:00,
2013-06-15 16:14:00,80.4,65.5,30.05,WSW,244,2.0,0.0,60,0.00,,,0.00,perl,2013-06-15 20:14:00,
2013-06-15 16:19:00,80.8,62.8,30.05,WSW,244,0.0,0.0,54,0.00,,,0.00,perl,2013-06-15 20:19:00,
2013-06-15 16:24:00,81.4,63.9,30.05,WSW,244,0.0,0.0,55,0.00,,,0.00,perl,2013-06-15 20:24:00,
2013-06-15 16:29:00,81.7,63.6,30.05,SW,235,0.0,1.0,54,0.00,,,0.00,perl,2013-06-15 20:29:00,
2013-06-15 16:34:00,81.5,64.0,30.05,SW,235,0.0,1.0,55,0.00,,,0.00,perl,2013-06-15 20:34:00,
2013-06-15 16:39:00,81.1,64.6,30.05,SW,234,2.0,0.0,57,0.00,,,0.00,perl,2013-06-15 20:39:00,
2013-06-15 16:44:00,80.5,64.1,30.05,SW,235,0.0,0.0,57,0.00,,,0.00,perl,2013-06-15 20:44:00,
2013-06-15 16:49:00,80.3,64.4,30.05,SW,234,0.0,0.0,58,0.00,,,0.00,perl,2013-06-15 20:49:00,
2013-06-15 16:54:00,80.3,63.9,30.05,SW,235,0.0,0.0,57,0.00,,,0.00,perl,2013-06-15 20:54:00,
2013-06-15 16:59:00,80.5,64.6,30.05,SW,234,0.0,0.0,58,0.00,,,0.00,perl,2013-06-15 20:59:00,
2013-06-15 17:04:00,80.6,65.7,30.05,SW,235,0.0,0.0,60,0.00,,,0.00,perl,2013-06-15 21:04:00,
2013-06-15 17:09:00,80.8,66.3,30.05,SW,235,0.0,0.0,61,0.00,,,0.00,perl,2013-06-15 21:09:00,
2013-06-15 17:14:00,80.5,64.6,30.05,SW,221,0.0,1.0,58,0.00,,,0.00,perl,2013-06-15 21:14:00,
2013-06-15 17:19:00,80.2,66.7,30.05,SW,221,2.0,0.0,63,0.00,,,0.00,perl,2013-06-15 21:19:00,
2013-06-15 17:24:00,79.9,64.5,30.05,SSW,211,0.0,0.0,59,0.00,,,0.00,perl,2013-06-15 21:24:00,
2013-06-15 17:29:00,79.6,65.7,30.04,SSW,211,0.0,0.0,62,0.00,,,0.00,perl,2013-06-15 21:29:00,
2013-06-15 17:34:00,79.3,64.9,30.04,SSW,210,0.0,0.0,61,0.00,,,0.00,perl,2013-06-15 21:34:00,
2013-06-15 17:39:00,79.3,64.4,30.04,SSW,210,0.0,0.0,60,0.00,,,0.00,perl,2013-06-15 21:39:00,
2013-06-15 17:44:00,79.4,65.0,30.05,SSW,210,0.0,0.0,61,0.00,,,0.00,perl,2013-06-15 21:44:00,
2013-06-15 17:49:00,79.3,64.0,30.05,SSW,210,0.0,0.0,59,0.00,,,0.00,perl,2013-06-15 21:49:00,
2013-06-15 17:54:00,79.5,66.0,30.05,SSW,210,0.0,0.0,63,0.00,,,0.00,perl,2013-06-15 21:54:00,
2013-06-15 17:59:00,79.6,66.1,30.04,SSW,210,0.0,0.0,63,0.00,,,0.00,perl,2013-06-15 21:59:00,
2013-06-15 18:04:00,79.4,66.8,30.04,SSW,211,0.0,0.0,65,0.00,,,0.00,perl,2013-06-15 22:04:00,
2013-06-15 18:09:00,79.1,65.7,30.04,SSW,210,0.0,0.0,63,0.00,,,0.00,perl,2013-06-15 22:09:00,
2013-06-15 18:14:00,79.0,66.5,30.04,SSW,210,0.0,0.0,65,0.00,,,0.00,perl,2013-06-15 22:14:00,
2013-06-15 18:19:00,78.8,67.1,30.04,SSW,210,0.0,0.0,67,0.00,,,0.00,perl,2013-06-15 22:19:00,
2013-06-15 18:24:00,78.7,67.1,30.04,SSW,210,0.0,0.0,67,0.00,,,0.00,perl,2013-06-15 22:24:00,
2013-06-15 18:29:00,78.7,65.7,30.04,SSW,210,0.0,0.0,64,0.00,,,0.00,perl,2013-06-15 22:29:00,
2013-06-15 18:34:00,78.9,66.8,30.04,SSW,211,0.0,0.0,66,0.00,,,0.00,perl,2013-06-15 22:34:00,
2013-06-15 18:39:00,78.8,66.3,30.04,SSW,210,0.0,0.0,65,0.00,,,0.00,perl,2013-06-15 22:39:00,
2013-06-15 18:44:00,78.7,66.2,30.04,SSW,211,0.0,0.0,65,0.00,,,0.00,perl,2013-06-15 22:44:00,
2013-06-15 18:49:00,78.6,66.5,30.04,SSW,210,0.0,0.0,66,0.00,,,0.00,perl,2013-06-15 22:49:00,
2013-06-15 18:54:00,78.5,66.4,30.04,SSW,211,0.0,0.0,66,0.00,,,0.00,perl,2013-06-15 22:54:00,
2013-06-15 18:59:00,78.4,66.8,30.04,SSW,211,0.0,0.0,67,0.00,,,0.00,perl,2013-06-15 22:59:00,
2013-06-15 19:04:00,78.4,67.6,30.04,SSW,210,0.0,0.0,69,0.00,,,0.00,perl,2013-06-15 23:04:00,
2013-06-15 19:09:00,78.3,67.1,30.04,SSW,210,0.0,0.0,68,0.00,,,0.00,perl,2013-06-15 23:09:00,
2013-06-15 19:14:00,78.0,67.2,30.04,SSW,211,0.0,0.0,69,0.00,,,0.00,perl,2013-06-15 23:14:00,
2013-06-15 19:19:00,77.8,67.4,30.04,SSW,211,0.0,0.0,70,0.00,,,0.00,perl,2013-06-15 23:19:00,
2013-06-15 19:24:00,77.6,66.8,30.04,SSW,211,0.0,0.0,69,0.00,,,0.00,perl,2013-06-15 23:24:00,
2013-06-15 19:29:00,77.3,66.6,30.04,SSW,211,0.0,0.0,69,0.00,,,0.00,perl,2013-06-15 23:29:00,
2013-06-15 19:34:00,77.0,67.1,30.04,SSW,211,0.0,0.0,71,0.00,,,0.00,perl,2013-06-15 23:34:00,
2013-06-15 19:39:00,76.7,68.0,30.04,SSW,210,0.0,0.0,74,0.00,,,0.00,perl,2013-06-15 23:39:00,
2013-06-15 19:44:00,76.5,68.5,30.03,SSW,210,0.0,0.0,76,0.00,,,0.00,perl,2013-06-15 23:44:00,
2013-06-15 19:49:00,76.2,68.2,30.03,SSW,211,0.0,0.0,76,0.00,,,0.00,perl,2013-06-15 23:49:00,
2013-06-15 19:54:00,76.0,67.7,30.03,SSW,211,0.0,0.0,75,0.00,,,0.00,perl,2013-06-15 23:54:00,
2013-06-15 19:59:00,75.9,67.6,30.02,SSW,211,0.0,0.0,75,0.00,,,0.00,perl,2013-06-15 23:59:00,
2013-06-15 20:04:00,75.8,67.5,30.02,SSW,210,0.0,0.0,75,0.00,,,0.00,perl,2013-06-16 00:04:00,
2013-06-15 20:09:00,75.6,67.3,30.02,SSW,211,0.0,0.0,75,0.00,,,0.00,perl,2013-06-16 00:09:00,
2013-06-15 20:14:00,75.5,67.2,30.02,SSW,211,0.0,0.0,75,0.00,,,0.00,perl,2013-06-16 00:14:00,
2013-06-15 20:19:00,75.3,67.0,30.02,SSW,211,0.0,0.0,75,0.00,,,0.00,perl,2013-06-16 00:19:00,
2013-06-15 20:24:00,75.0,67.1,30.02,SSW,211,0.0,0.0,76,0.00,,,0.00,perl,2013-06-16 00:24:00,
2013-06-15 20:29:00,74.6,66.7,30.01,SSW,211,0.0,0.0,76,0.00,,,0.00,perl,2013-06-16 00:29:00,
2013-06-15 20:34:00,74.2,66.7,30.01,SSW,211,0.0,0.0,77,0.00,,,0.00,perl,2013-06-16 00:34:00,
2013-06-15 20:39:00,73.7,66.9,30.01,SSW,210,0.0,0.0,79,0.00,,,0.00,perl,2013-06-16 00:39:00,
2013-06-15 20:44:00,73.2,66.8,30.01,SSW,211,0.0,0.0,80,0.00,,,0.00,perl,2013-06-16 00:44:00,
2013-06-15 20:49:00,72.8,67.4,30.01,SSW,210,0.0,0.0,83,0.00,,,0.00,perl,2013-06-16 00:49:00,
2013-06-15 20:54:00,72.2,66.5,30.01,SSW,211,0.0,0.0,82,0.00,,,0.00,perl,2013-06-16 00:54:00,
2013-06-15 20:59:00,71.8,66.4,30.01,SSW,210,0.0,0.0,83,0.00,,,0.00,perl,2013-06-16 00:59:00,
2013-06-15 21:04:00,71.3,66.6,30.01,SSW,211,0.0,0.0,85,0.00,,,0.00,perl,2013-06-16 01:04:00,
2013-06-15 21:09:00,70.9,66.5,30.01,SSW,211,0.0,0.0,86,0.00,,,0.00,perl,2013-06-16 01:09:00,
2013-06-15 21:14:00,70.4,66.4,30.01,SSW,210,0.0,0.0,87,0.00,,,0.00,perl,2013-06-16 01:14:00,
2013-06-15 21:19:00,70.1,66.4,30.01,SSW,210,0.0,0.0,88,0.00,,,0.00,perl,2013-06-16 01:19:00,
2013-06-15 21:24:00,69.7,66.3,30.01,SSW,211,0.0,0.0,89,0.00,,,0.00,perl,2013-06-16 01:24:00,
2013-06-15 21:29:00,69.4,66.3,30.01,SSW,211,0.0,0.0,90,0.00,,,0.00,perl,2013-06-16 01:29:00,
2013-06-15 21:34:00,69.0,65.9,30.01,SSW,211,0.0,0.0,90,0.00,,,0.00,perl,2013-06-16 01:34:00,
2013-06-15 21:39:00,68.7,65.6,30.01,SSW,210,0.0,0.0,90,0.00,,,0.00,perl,2013-06-16 01:39:00,
2013-06-15 21:44:00,68.5,65.7,30.01,SSW,211,0.0,0.0,91,0.00,,,0.00,perl,2013-06-16 01:44:00,
2013-06-15 21:49:00,68.2,65.8,30.01,SSW,210,0.0,0.0,92,0.00,,,0.00,perl,2013-06-16 01:49:00,
2013-06-15 21:54:00,68.0,65.6,30.01,SSW,210,0.0,0.0,92,0.00,,,0.00,perl,2013-06-16 01:54:00,
2013-06-15 21:59:00,67.7,65.6,30.02,SSW,211,0.0,0.0,93,0.00,,,0.00,perl,2013-06-16 01:59:00,
2013-06-15 22:04:00,67.4,65.3,30.02,SSW,211,0.0,0.0,93,0.00,,,0.00,perl,2013-06-16 02:04:00,
2013-06-15 22:09:00,67.2,65.4,30.02,SSW,210,0.0,0.0,94,0.00,,,0.00,perl,2013-06-16 02:09:00,
2013-06-15 22:14:00,67.1,65.3,30.02,SSW,210,0.0,0.0,94,0.00,,,0.00,perl,2013-06-16 02:14:00,
2013-06-15 22:19:00,67.0,65.5,30.02,SSW,211,0.0,0.0,95,0.00,,,0.00,perl,2013-06-16 02:19:00,
2013-06-15 22:24:00,67.0,65.5,30.02,SSW,210,0.0,0.0,95,0.00,,,0.00,perl,2013-06-16 02:24:00,
2013-06-15 22:29:00,67.0,65.5,30.03,SSW,210,0.0,0.0,95,0.00,,,0.00,perl,2013-06-16 02:29:00,
2013-06-15 22:34:00,67.0,65.5,30.03,SSW,210,0.0,0.0,95,0.00,,,0.00,perl,2013-06-16 02:34:00,
2013-06-15 22:39:00,66.9,65.4,30.03,SSW,211,0.0,0.0,95,0.00,,,0.00,perl,2013-06-16 02:39:00,
2013-06-15 22:44:00,66.8,65.3,30.03,SSW,211,0.0,0.0,95,0.00,,,0.00,perl,2013-06-16 02:44:00,
2013-06-15 22:49:00,66.7,65.2,30.03,SSW,211,0.0,0.0,95,0.00,,,0.00,perl,2013-06-16 02:49:00,
2013-06-15 22:54:00,66.6,65.1,30.03,SSW,211,0.0,0.0,95,0.00,,,0.00,perl,2013-06-16 02:54:00,
2013-06-15 22:59:00,66.5,65.3,30.02,SSW,211,0.0,0.0,96,0.00,,,0.00,perl,2013-06-16 02:59:00,
2013-06-15 23:04:00,66.5,65.3,30.02,SSW,210,0.0,0.0,96,0.00,,,0.00,perl,2013-06-16 03:04:00,
2013-06-15 23:09:00,66.5,65.3,30.02,SSW,210,0.0,0.0,96,0.00,,,0.00,perl,2013-06-16 03:09:00,
2013-06-15 23:14:00,66.4,65.2,30.03,SSW,211,0.0,0.0,96,0.00,,,0.00,perl,2013-06-16 03:14:00,
2013-06-15 23:19:00,66.3,65.1,30.03,SSW,211,0.0,0.0,96,0.00,,,0.00,perl,2013-06-16 03:19:00,
2013-06-15 23:24:00,66.1,64.9,30.03,SSW,211,0.0,0.0,96,0.00,,,0.00,perl,2013-06-16 03:24:00,
2013-06-15 23:29:00,65.9,64.7,30.02,SSW,210,0.0,0.0,96,0.00,,,0.00,perl,2013-06-16 03:29:00,
2013-06-15 23:34:00,65.8,64.6,30.02,SSW,211,0.0,0.0,96,0.00,,,0.00,perl,2013-06-16 03:34:00,
2013-06-15 23:39:00,65.7,64.5,30.02,SSW,211,0.0,0.0,96,0.00,,,0.00,perl,2013-06-16 03:39:00,
2013-06-15 23:44:00,65.6,64.4,30.02,SSW,211,0.0,0.0,96,0.00,,,0.00,perl,2013-06-16 03:44:00,
2013-06-15 23:49:00,65.4,64.2,30.02,SSW,210,0.0,0.0,96,0.00,,,0.00,perl,2013-06-16 03:49:00,
2013-06-15 23:54:00,65.3,64.4,30.02,SSW,211,0.0,0.0,97,0.00,,,0.00,perl,2013-06-16 03:54:00,
2013-06-15 23:59:00,65.2,64.3,30.03,SSW,211,0.0,0.0,97,0.00,,,0.00,perl,2013-06-16 03:59:00,